Time,TemperatureF,DewpointF,PressureIn,WindDirection,WindDirectionDegrees,WindSpeedMPH,WindSpeedGustMPH,Humidity,HourlyPrecipIn,Conditions,Clouds,dailyrainin,SoftwareType,DateUTC
2013-04-21 00:00:00,65.5,56.2,30.02,East,98,4.0,4.0,72,0.00,,,0.00,Wunderground v.1.15,2013-04-21 05:00:00,
2013-04-21 00:10:00,65.3,56.0,30.02,SE,124,4.0,8.0,72,0.00,,,0.00,Wunderground v.1.15,2013-04-21 05:10:00,
2013-04-21 00:20:00,65.2,55.2,30.03,South,188,3.0,3.0,70,0.00,,,0.00,Wunderground v.1.15,2013-04-21 05:20:00,
2013-04-21 00:25:00,65.2,55.2,30.03,SE,137,3.0,3.0,70,0.00,,,0.00,Wunderground v.1.15,2013-04-21 05:25:00,
2013-04-21 00:30:00,65.1,55.1,30.03,East,98,2.0,2.0,70,0.00,,,0.00,Wunderground v.1.15,2013-04-21 05:30:00,
2013-04-21 00:35:00,65.0,55.0,30.02,ESE,113,1.0,4.0,70,0.00,,,0.00,Wunderground v.1.15,2013-04-21 05:35:00,
2013-04-21 00:40:00,64.9,55.3,30.03,ESE,103,2.0,2.0,71,0.00,,,0.00,Wunderground v.1.15,2013-04-21 05:40:00,
2013-04-21 00:45:00,65.0,55.4,30.03,ESE,122,2.0,2.0,71,0.00,,,0.00,Wunderground v.1.15,2013-04-21 05:45:00,
2013-04-21 00:55:00,64.9,55.3,30.02,ESE,115,3.0,5.0,71,0.00,,,0.00,Wunderground v.1.15,2013-04-21 05:55:00,
2013-04-21 01:00:00,64.9,55.3,30.02,SE,134,3.0,3.0,71,0.00,,,0.00,Wunderground v.1.15,2013-04-21 06:00:00,
2013-04-21 01:10:00,64.7,55.5,30.02,ESE,123,2.0,3.0,72,0.00,,,0.00,Wunderground v.1.15,2013-04-21 06:10:00,
2013-04-21 01:15:00,64.7,55.5,30.02,SE,131,2.0,3.0,72,0.00,,,0.00,Wunderground v.1.15,2013-04-21 06:15:00,
2013-04-21 01:25:00,64.8,55.9,30.02,SE,145,2.0,2.0,73,0.00,,,0.00,Wunderground v.1.15,2013-04-21 06:25:00,
2013-04-21 01:30:00,64.9,56.0,30.02,ESE,120,2.0,4.0,73,0.00,,,0.00,Wunderground v.1.15,2013-04-21 06:30:00,
2013-04-21 01:35:00,65.2,56.7,30.02,ESE,115,3.0,4.0,74,0.00,,,0.00,Wunderground v.1.15,2013-04-21 06:35:00,
2013-04-21 01:40:00,65.5,57.4,30.01,SE,127,3.0,5.0,75,0.00,,,0.00,Wunderground v.1.15,2013-04-21 06:40:00,
2013-04-21 01:45:00,65.6,57.5,30.01,ESE,102,3.0,5.0,75,0.00,,,0.00,Wunderground v.1.15,2013-04-21 06:45:00,
2013-04-21 01:50:00,65.4,56.9,30.00,ESE,123,4.0,4.0,74,0.00,,,0.00,Wunderground v.1.15,2013-04-21 06:50:00,
2013-04-21 02:00:00,65.4,56.1,30.00,SSE,158,4.0,4.0,72,0.00,,,0.00,Wunderground v.1.15,2013-04-21 07:00:00,
2013-04-21 02:10:00,65.5,56.6,29.99,East,79,4.0,4.0,73,0.00,,,0.00,Wunderground v.1.15,2013-04-21 07:10:00,
2013-04-21 02:15:00,65.5,56.6,29.99,East,92,4.0,4.0,73,0.00,,,0.00,Wunderground v.1.15,2013-04-21 07:15:00,
2013-04-21 02:20:00,65.4,56.5,29.99,SE,133,4.0,4.0,73,0.00,,,0.00,Wunderground v.1.15,2013-04-21 07:20:00,
2013-04-21 02:30:00,65.3,56.8,29.99,ESE,111,4.0,5.0,74,0.00,,,0.00,Wunderground v.1.15,2013-04-21 07:30:00,
2013-04-21 02:35:00,65.2,56.7,29.98,SSE,159,3.0,5.0,74,0.00,,,0.00,Wunderground v.1.15,2013-04-21 07:35:00,
2013-04-21 02:40:00,65.1,56.6,29.99,SE,131,3.0,4.0,74,0.00,,,0.00,Wunderground v.1.15,2013-04-21 07:40:00,
2013-04-21 02:45:00,65.2,57.1,29.99,SE,124,3.0,5.0,75,0.00,,,0.00,Wunderground v.1.15,2013-04-21 07:45:00,
2013-04-21 02:50:00,65.3,57.2,29.98,ESE,103,3.0,3.0,75,0.00,,,0.00,Wunderground v.1.15,2013-04-21 07:50:00,
2013-04-21 02:55:00,65.3,56.8,29.98,SE,125,3.0,3.0,74,0.00,,,0.00,Wunderground v.1.15,2013-04-21 07:55:00,
2013-04-21 03:00:00,65.3,56.8,29.98,SSE,152,3.0,6.0,74,0.00,,,0.00,Wunderground v.1.15,2013-04-21 08:00:00,
2013-04-21 03:10:00,65.3,56.8,29.98,ESE,106,3.0,4.0,74,0.00,,,0.00,Wunderground v.1.15,2013-04-21 08:10:00,
2013-04-21 03:15:00,65.3,56.4,29.98,SE,137,3.0,5.0,73,0.00,,,0.00,Wunderground v.1.15,2013-04-21 08:15:00,
2013-04-21 03:20:00,65.4,56.5,29.99,ESE,121,4.0,5.0,73,0.00,,,0.00,Wunderground v.1.15,2013-04-21 08:20:00,
2013-04-21 03:25:00,65.4,56.5,29.99,SE,134,4.0,5.0,73,0.00,,,0.00,Wunderground v.1.15,2013-04-21 08:25:00,
2013-04-21 03:35:00,65.4,56.5,29.98,SE,132,3.0,8.0,73,0.00,,,0.00,Wunderground v.1.15,2013-04-21 08:35:00,
2013-04-21 03:40:00,65.4,56.5,29.99,SSE,148,4.0,4.0,73,0.00,,,0.00,Wunderground v.1.15,2013-04-21 08:40:00,
2013-04-21 03:45:00,65.4,56.5,29.99,SE,136,3.0,4.0,73,0.00,,,0.00,Wunderground v.1.15,2013-04-21 08:45:00,
2013-04-21 03:50:00,65.4,56.9,29.99,SE,138,3.0,3.0,74,0.00,,,0.00,Wunderground v.1.15,2013-04-21 08:50:00,
2013-04-21 03:55:00,65.4,56.9,29.99,ESE,123,3.0,3.0,74,0.00,,,0.00,Wunderground v.1.15,2013-04-21 08:55:00,
2013-04-21 04:00:00,65.5,57.0,29.99,South,173,2.0,2.0,74,0.00,,,0.00,Wunderground v.1.15,2013-04-21 09:00:00,
2013-04-21 04:10:00,65.7,57.6,29.99,ESE,113,3.0,5.0,75,0.00,,,0.00,Wunderground v.1.15,2013-04-21 09:10:00,
2013-04-21 04:15:00,65.8,58.0,29.99,ESE,115,4.0,5.0,76,0.00,,,0.00,Wunderground v.1.15,2013-04-21 09:15:00,
2013-04-21 04:20:00,65.7,57.6,29.99,SE,129,3.0,3.0,75,0.00,,,0.00,Wunderground v.1.15,2013-04-21 09:20:00,
2013-04-21 04:25:00,65.5,57.4,29.99,ESE,117,3.0,4.0,75,0.00,,,0.00,Wunderground v.1.15,2013-04-21 09:25:00,
2013-04-21 04:30:00,65.4,57.6,29.98,ESE,112,3.0,4.0,76,0.00,,,0.00,Wunderground v.1.15,2013-04-21 09:30:00,
2013-04-21 04:40:00,65.6,57.8,29.98,SE,127,5.0,5.0,76,0.00,,,0.00,Wunderground v.1.15,2013-04-21 09:40:00,
2013-04-21 04:45:00,65.6,57.8,29.98,SE,141,4.0,5.0,76,0.00,,,0.00,Wunderground v.1.15,2013-04-21 09:45:00,
2013-04-21 04:50:00,65.4,57.6,29.99,SSE,157,3.0,3.0,76,0.00,,,0.00,Wunderground v.1.15,2013-04-21 09:50:00,
2013-04-21 04:55:00,65.3,57.5,29.99,SE,131,3.0,3.0,76,0.00,,,0.00,Wunderground v.1.15,2013-04-21 09:55:00,
2013-04-21 05:00:00,65.2,57.4,29.99,ESE,108,3.0,3.0,76,0.00,,,0.00,Wunderground v.1.15,2013-04-21 10:00:00,
2013-04-21 05:10:00,64.9,57.2,29.99,SSW,195,2.0,2.0,76,0.00,,,0.00,Wunderground v.1.15,2013-04-21 10:10:00,
2013-04-21 05:15:00,64.7,56.6,29.99,SSW,204,1.0,2.0,75,0.00,,,0.00,Wunderground v.1.15,2013-04-21 10:15:00,
2013-04-21 05:20:00,64.5,56.4,29.99,SSW,203,1.0,2.0,75,0.00,,,0.00,Wunderground v.1.15,2013-04-21 10:20:00,
2013-04-21 05:25:00,64.3,56.2,29.99,SE,146,1.0,2.0,75,0.00,,,0.00,Wunderground v.1.15,2013-04-21 10:25:00,
2013-04-21 05:30:00,64.2,56.1,29.99,SE,143,1.0,1.0,75,0.00,,,0.00,Wunderground v.1.15,2013-04-21 10:30:00,
2013-04-21 05:35:00,64.1,56.0,29.99,SSE,155,1.0,1.0,75,0.00,,,0.00,Wunderground v.1.15,2013-04-21 10:35:00,
2013-04-21 05:45:00,63.8,56.1,29.99,ESE,115,1.0,4.0,76,0.00,,,0.00,Wunderground v.1.15,2013-04-21 10:45:00,
2013-04-21 05:50:00,63.7,56.0,29.99,South,169,1.0,1.0,76,0.00,,,0.00,Wunderground v.1.15,2013-04-21 10:50:00,
2013-04-21 05:55:00,63.6,56.3,29.99,ESE,117,1.0,1.0,77,0.00,,,0.00,Wunderground v.1.15,2013-04-21 10:55:00,
2013-04-21 06:00:00,63.4,56.1,29.99,SE,136,0.0,0.0,77,0.00,,,0.00,Wunderground v.1.15,2013-04-21 11:00:00,
2013-04-21 06:10:00,63.1,56.1,30.00,South,176,0.0,0.0,78,0.00,,,0.00,Wunderground v.1.15,2013-04-21 11:10:00,
2013-04-21 06:20:00,62.9,55.9,30.00,SSE,158,0.0,0.0,78,0.00,,,0.00,Wunderground v.1.15,2013-04-21 11:20:00,
2013-04-21 06:25:00,62.8,55.8,30.00,SSE,158,0.0,0.0,78,0.00,,,0.00,Wunderground v.1.15,2013-04-21 11:25:00,
2013-04-21 06:30:00,62.6,55.6,30.00,SSE,158,0.0,0.0,78,0.00,,,0.00,Wunderground v.1.15,2013-04-21 11:30:00,
2013-04-21 06:35:00,62.4,55.8,30.00,SSE,158,0.0,0.0,79,0.00,,,0.00,Wunderground v.1.15,2013-04-21 11:35:00,
2013-04-21 06:40:00,62.3,56.0,30.01,SSE,158,0.0,0.0,80,0.00,,,0.00,Wunderground v.1.15,2013-04-21 11:40:00,
2013-04-21 06:50:00,61.9,56.0,30.01,SSE,158,0.0,0.0,81,0.00,,,0.00,Wunderground v.1.15,2013-04-21 11:50:00,
2013-04-21 06:55:00,61.6,55.7,30.01,SSE,158,0.0,0.0,81,0.00,,,0.00,Wunderground v.1.15,2013-04-21 11:55:00,
2013-04-21 07:00:00,61.4,55.9,30.01,SSE,158,0.0,0.0,82,0.00,,,0.00,Wunderground v.1.15,2013-04-21 12:00:00,
2013-04-21 07:10:00,61.2,56.0,30.02,SSE,158,0.0,0.0,83,0.00,,,0.00,Wunderground v.1.15,2013-04-21 12:10:00,
2013-04-21 07:15:00,61.1,55.9,30.02,SSE,158,0.0,0.0,83,0.00,,,0.00,Wunderground v.1.15,2013-04-21 12:15:00,
2013-04-21 07:25:00,60.8,55.6,30.02,SSE,158,0.0,0.0,83,0.00,,,0.00,Wunderground v.1.15,2013-04-21 12:25:00,
2013-04-21 07:30:00,60.8,55.9,30.02,SSE,158,0.0,0.0,84,0.00,,,0.00,Wunderground v.1.15,2013-04-21 12:30:00,
2013-04-21 07:35:00,60.9,56.0,30.03,SSE,158,0.0,0.0,84,0.00,,,0.00,Wunderground v.1.15,2013-04-21 12:35:00,
2013-04-21 07:40:00,61.1,56.6,30.03,SSE,158,0.0,0.0,85,0.00,,,0.00,Wunderground v.1.15,2013-04-21 12:40:00,
2013-04-21 07:45:00,61.5,56.9,30.03,SSE,158,0.0,0.0,85,0.00,,,0.00,Wunderground v.1.15,2013-04-21 12:45:00,
2013-04-21 07:55:00,63.0,58.4,30.03,SSE,158,0.0,0.0,85,0.00,,,0.00,Wunderground v.1.15,2013-04-21 12:55:00,
2013-04-21 08:00:00,63.8,58.9,30.04,SSE,158,0.0,0.0,84,0.00,,,0.00,Wunderground v.1.15,2013-04-21 13:00:00,
2013-04-21 08:10:00,65.9,59.6,30.04,SSE,158,0.0,0.0,80,0.00,,,0.00,Wunderground v.1.15,2013-04-21 13:10:00,
2013-04-21 08:15:00,66.8,59.7,30.04,ESE,120,0.0,0.0,78,0.00,,,0.00,Wunderground v.1.15,2013-04-21 13:15:00,
2013-04-21 08:20:00,67.4,59.6,30.04,SSE,152,1.0,1.0,76,0.00,,,0.00,Wunderground v.1.15,2013-04-21 13:20:00,
2013-04-21 08:30:00,68.5,59.9,30.04,SSE,148,1.0,1.0,74,0.00,,,0.00,Wunderground v.1.15,2013-04-21 13:30:00,
2013-04-21 08:35:00,68.8,59.8,30.05,SSE,159,1.0,2.0,73,0.00,,,0.00,Wunderground v.1.15,2013-04-21 13:35:00,
2013-04-21 08:40:00,69.3,59.9,30.05,SE,145,1.0,3.0,72,0.00,,,0.00,Wunderground v.1.15,2013-04-21 13:40:00,
2013-04-21 08:45:00,69.6,59.8,30.05,East,99,1.0,3.0,71,0.00,,,0.00,Wunderground v.1.15,2013-04-21 13:45:00,
2013-04-21 08:50:00,69.5,59.7,30.05,East,92,2.0,3.0,71,0.00,,,0.00,Wunderground v.1.15,2013-04-21 13:50:00,
2013-04-21 09:00:00,69.7,59.9,30.05,East,99,2.0,2.0,71,0.00,,,0.00,Wunderground v.1.15,2013-04-21 14:00:00,
2013-04-21 09:10:00,70.1,60.3,30.05,ENE,78,2.0,2.0,71,0.00,,,0.00,Wunderground v.1.15,2013-04-21 14:10:00,
2013-04-21 09:15:00,70.3,60.1,30.06,ENE,77,2.0,2.0,70,0.00,,,0.00,Wunderground v.1.15,2013-04-21 14:15:00,
2013-04-21 09:20:00,70.5,60.2,30.05,East,91,2.0,3.0,70,0.00,,,0.00,Wunderground v.1.15,2013-04-21 14:20:00,
2013-04-21 09:25:00,70.6,60.3,30.06,ENE,68,2.0,3.0,70,0.00,,,0.00,Wunderground v.1.15,2013-04-21 14:25:00,
2013-04-21 09:35:00,70.1,59.9,30.06,East,85,3.0,3.0,70,0.00,,,0.00,Wunderground v.1.15,2013-04-21 14:35:00,
2013-04-21 09:40:00,70.1,60.3,30.06,East,89,3.0,4.0,71,0.00,,,0.00,Wunderground v.1.15,2013-04-21 14:40:00,
2013-04-21 09:45:00,70.4,60.1,30.06,ENE,61,3.0,4.0,70,0.00,,,0.00,Wunderground v.1.15,2013-04-21 14:45:00,
2013-04-21 09:50:00,70.5,60.2,30.06,East,98,3.0,3.0,70,0.00,,,0.00,Wunderground v.1.15,2013-04-21 14:50:00,
2013-04-21 09:55:00,70.9,61.0,30.06,ENE,67,3.0,3.0,71,0.00,,,0.00,Wunderground v.1.15,2013-04-21 14:55:00,
2013-04-21 10:00:00,70.9,60.6,30.07,East,85,3.0,3.0,70,0.00,,,0.00,Wunderground v.1.15,2013-04-21 15:00:00,
2013-04-21 10:10:00,70.8,60.5,30.07,East,95,3.0,5.0,70,0.00,,,0.00,Wunderground v.1.15,2013-04-21 15:10:00,
2013-04-21 10:15:00,71.3,61.0,30.07,East,98,4.0,5.0,70,0.00,,,0.00,Wunderground v.1.15,2013-04-21 15:15:00,
2013-04-21 10:20:00,71.4,60.7,30.07,East,87,4.0,6.0,69,0.00,,,0.00,Wunderground v.1.15,2013-04-21 15:20:00,
2013-04-21 10:25:00,71.4,61.1,30.07,East,88,3.0,6.0,70,0.00,,,0.00,Wunderground v.1.15,2013-04-21 15:25:00,
2013-04-21 10:30:00,71.4,61.1,30.07,East,91,4.0,4.0,70,0.00,,,0.00,Wunderground v.1.15,2013-04-21 15:30:00,
2013-04-21 10:40:00,71.8,61.5,30.07,ESE,114,5.0,6.0,70,0.00,,,0.00,Wunderground v.1.15,2013-04-21 15:40:00,
2013-04-21 10:45:00,71.7,61.0,30.07,ENE,70,5.0,6.0,69,0.00,,,0.00,Wunderground v.1.15,2013-04-21 15:45:00,
2013-04-21 10:50:00,71.8,61.9,30.07,ENE,67,4.0,4.0,71,0.00,,,0.00,Wunderground v.1.15,2013-04-21 15:50:00,
2013-04-21 10:55:00,71.9,61.2,30.07,ESE,115,4.0,4.0,69,0.00,,,0.00,Wunderground v.1.15,2013-04-21 15:55:00,
2013-04-21 11:00:00,72.0,61.3,30.07,East,85,4.0,6.0,69,0.00,,,0.00,Wunderground v.1.15,2013-04-21 16:00:00,
2013-04-21 11:10:00,71.9,61.2,30.07,East,98,5.0,8.0,69,0.00,,,0.00,Wunderground v.1.15,2013-04-21 16:10:00,
2013-04-21 11:15:00,71.7,61.4,30.07,ENE,78,5.0,8.0,70,0.00,,,0.00,Wunderground v.1.15,2013-04-21 16:15:00,
2013-04-21 11:20:00,71.7,61.4,30.07,East,86,6.0,6.0,70,0.00,,,0.00,Wunderground v.1.15,2013-04-21 16:20:00,
2013-04-21 11:25:00,71.8,61.9,30.06,East,86,5.0,6.0,71,0.00,,,0.00,Wunderground v.1.15,2013-04-21 16:25:00,
2013-04-21 11:30:00,71.8,61.5,30.06,East,83,5.0,5.0,70,0.00,,,0.00,Wunderground v.1.15,2013-04-21 16:30:00,
2013-04-21 11:35:00,72.3,61.6,30.06,ENE,77,5.0,5.0,69,0.00,,,0.00,Wunderground v.1.15,2013-04-21 16:35:00,
2013-04-21 11:45:00,72.4,61.7,30.06,ESE,118,5.0,5.0,69,0.00,,,0.00,Wunderground v.1.15,2013-04-21 16:45:00,
2013-04-21 11:50:00,72.4,61.2,30.06,East,85,5.0,5.0,68,0.00,,,0.00,Wunderground v.1.15,2013-04-21 16:50:00,
2013-04-21 11:55:00,73.0,61.8,30.06,ESE,105,5.0,5.0,68,0.00,,,0.00,Wunderground v.1.15,2013-04-21 16:55:00,
2013-04-21 12:00:00,73.0,61.4,30.06,ENE,77,4.0,4.0,67,0.00,,,0.00,Wunderground v.1.15,2013-04-21 17:00:00,
2013-04-21 12:10:00,72.6,61.4,30.06,ENE,72,6.0,6.0,68,0.00,,,0.00,Wunderground v.1.15,2013-04-21 17:10:00,
2013-04-21 12:15:00,72.6,61.0,30.05,ENE,75,6.0,6.0,67,0.00,,,0.00,Wunderground v.1.15,2013-04-21 17:15:00,
2013-04-21 12:20:00,72.8,61.2,30.05,East,85,6.0,6.0,67,0.00,,,0.00,Wunderground v.1.15,2013-04-21 17:20:00,
2013-04-21 12:25:00,72.9,61.7,30.05,East,100,6.0,6.0,68,0.00,,,0.00,Wunderground v.1.15,2013-04-21 17:25:00,
2013-04-21 12:30:00,73.1,61.5,30.05,ENE,67,6.0,6.0,67,0.00,,,0.00,Wunderground v.1.15,2013-04-21 17:30:00,
2013-04-21 12:35:00,73.2,61.6,30.05,East,81,6.0,7.0,67,0.00,,,0.00,Wunderground v.1.15,2013-04-21 17:35:00,
2013-04-21 12:40:00,73.1,62.3,30.05,NE,51,6.0,6.0,69,0.00,,,0.00,Wunderground v.1.15,2013-04-21 17:40:00,
2013-04-21 12:50:00,74.2,62.1,30.05,ENE,60,4.0,4.0,66,0.00,,,0.00,Wunderground v.1.15,2013-04-21 17:50:00,
2013-04-21 12:55:00,74.2,62.1,30.04,ESE,109,5.0,5.0,66,0.00,,,0.00,Wunderground v.1.15,2013-04-21 17:55:00,
2013-04-21 13:00:00,73.9,61.8,30.04,ENE,72,6.0,13.0,66,0.00,,,0.00,Wunderground v.1.15,2013-04-21 18:00:00,
2013-04-21 13:10:00,74.0,61.9,30.04,NE,54,5.0,9.0,66,0.00,,,0.00,Wunderground v.1.15,2013-04-21 18:10:00,
2013-04-21 13:15:00,74.2,62.5,30.04,ESE,121,6.0,9.0,67,0.00,,,0.00,Wunderground v.1.15,2013-04-21 18:15:00,
2013-04-21 13:25:00,74.1,61.6,30.03,NE,41,6.0,6.0,65,0.00,,,0.00,Wunderground v.1.15,2013-04-21 18:25:00,
2013-04-21 13:30:00,73.9,61.4,30.03,ENE,72,6.0,6.0,65,0.00,,,0.00,Wunderground v.1.15,2013-04-21 18:30:00,
2013-04-21 13:35:00,73.9,61.8,30.03,ENE,71,6.0,8.0,66,0.00,,,0.00,Wunderground v.1.15,2013-04-21 18:35:00,
2013-04-21 13:40:00,73.8,61.3,30.03,East,79,6.0,6.0,65,0.00,,,0.00,Wunderground v.1.15,2013-04-21 18:40:00,
2013-04-21 13:45:00,73.2,61.6,30.03,East,86,7.0,7.0,67,0.00,,,0.00,Wunderground v.1.15,2013-04-21 18:45:00,
2013-04-21 13:55:00,74.0,61.5,30.03,ENE,74,6.0,10.0,65,0.00,,,0.00,Wunderground v.1.15,2013-04-21 18:55:00,
2013-04-21 14:00:00,73.6,61.1,30.02,ESE,116,6.0,6.0,65,0.00,,,0.00,Wunderground v.1.15,2013-04-21 19:00:00,
2013-04-21 14:10:00,74.0,62.3,30.02,East,79,7.0,7.0,67,0.00,,,0.00,Wunderground v.1.15,2013-04-21 19:10:00,
2013-04-21 14:15:00,73.8,62.2,30.02,ENE,68,7.0,7.0,67,0.00,,,0.00,Wunderground v.1.15,2013-04-21 19:15:00,
2013-04-21 14:20:00,74.0,62.3,30.01,ENE,75,6.0,6.0,67,0.00,,,0.00,Wunderground v.1.15,2013-04-21 19:20:00,
2013-04-21 14:30:00,73.9,62.2,30.01,ENE,65,6.0,9.0,67,0.00,,,0.00,Wunderground v.1.15,2013-04-21 19:30:00,
2013-04-21 14:35:00,74.0,62.3,30.01,ENE,67,6.0,9.0,67,0.00,,,0.00,Wunderground v.1.15,2013-04-21 19:35:00,
2013-04-21 14:40:00,74.3,61.8,30.01,East,85,6.0,7.0,65,0.00,,,0.00,Wunderground v.1.15,2013-04-21 19:40:00,
2013-04-21 14:45:00,74.3,61.8,30.01,East,89,6.0,7.0,65,0.00,,,0.00,Wunderground v.1.15,2013-04-21 19:45:00,
2013-04-21 14:50:00,74.2,61.7,30.01,East,89,6.0,6.0,65,0.00,,,0.00,Wunderground v.1.15,2013-04-21 19:50:00,
2013-04-21 15:00:00,74.0,61.9,30.00,ESE,107,6.0,6.0,66,0.00,,,0.00,Wunderground v.1.15,2013-04-21 20:00:00,
2013-04-21 15:10:00,74.9,62.3,30.00,East,89,5.0,7.0,65,0.00,,,0.00,Wunderground v.1.15,2013-04-21 20:10:00,
2013-04-21 15:15:00,75.0,62.9,30.00,East,91,5.0,7.0,66,0.00,,,0.00,Wunderground v.1.15,2013-04-21 20:15:00,
2013-04-21 15:20:00,75.1,62.1,30.00,East,101,6.0,9.0,64,0.00,,,0.00,Wunderground v.1.15,2013-04-21 20:20:00,
2013-04-21 15:25:00,74.6,62.5,30.00,East,96,6.0,11.0,66,0.00,,,0.00,Wunderground v.1.15,2013-04-21 20:25:00,
2013-04-21 15:35:00,74.3,62.6,29.99,East,86,6.0,11.0,67,0.00,,,0.00,Wunderground v.1.15,2013-04-21 20:35:00,
2013-04-21 15:40:00,74.3,62.2,29.99,East,88,6.0,7.0,66,0.00,,,0.00,Wunderground v.1.15,2013-04-21 20:40:00,
2013-04-21 15:45:00,75.0,62.9,29.99,SE,135,5.0,7.0,66,0.00,,,0.00,Wunderground v.1.15,2013-04-21 20:45:00,
2013-04-21 15:50:00,74.3,62.6,29.98,East,91,6.0,6.0,67,0.00,,,0.00,Wunderground v.1.15,2013-04-21 20:50:00,
2013-04-21 15:55:00,74.0,62.8,29.98,East,91,7.0,7.0,68,0.00,,,0.00,Wunderground v.1.15,2013-04-21 20:55:00,
2013-04-21 16:00:00,74.4,63.1,29.98,East,91,6.0,7.0,68,0.00,,,0.00,Wunderground v.1.15,2013-04-21 21:00:00,
2013-04-21 16:10:00,74.2,63.4,29.98,ENE,67,7.0,7.0,69,0.00,,,0.00,Wunderground v.1.15,2013-04-21 21:10:00,
2013-04-21 16:15:00,73.4,62.6,29.98,ENE,72,8.0,9.0,69,0.00,,,0.00,Wunderground v.1.15,2013-04-21 21:15:00,
2013-04-21 16:20:00,73.3,62.9,29.97,East,92,8.0,8.0,70,0.00,,,0.00,Wunderground v.1.15,2013-04-21 21:20:00,
2013-04-21 16:25:00,74.0,63.2,29.97,East,84,7.0,8.0,69,0.00,,,0.00,Wunderground v.1.15,2013-04-21 21:25:00,
2013-04-21 16:30:00,73.4,63.0,29.97,East,91,7.0,7.0,70,0.00,,,0.00,Wunderground v.1.15,2013-04-21 21:30:00,
2013-04-21 16:40:00,73.1,62.3,29.97,ENE,73,8.0,8.0,69,0.00,,,0.00,Wunderground v.1.15,2013-04-21 21:40:00,
2013-04-21 16:45:00,73.5,63.5,29.97,ESE,105,8.0,10.0,71,0.00,,,0.00,Wunderground v.1.15,2013-04-21 21:45:00,
2013-04-21 16:50:00,73.1,63.5,29.97,East,85,8.0,12.0,72,0.00,,,0.00,Wunderground v.1.15,2013-04-21 21:50:00,
2013-04-21 16:55:00,73.5,63.9,29.97,NE,56,8.0,12.0,72,0.00,,,0.00,Wunderground v.1.15,2013-04-21 21:55:00,
2013-04-21 17:00:00,73.3,63.7,29.97,East,81,7.0,9.0,72,0.00,,,0.00,Wunderground v.1.15,2013-04-21 22:00:00,
2013-04-21 17:10:00,73.0,63.4,29.97,ESE,107,8.0,8.0,72,0.00,,,0.00,Wunderground v.1.15,2013-04-21 22:10:00,
2013-04-21 17:15:00,73.4,64.2,29.97,East,81,7.0,9.0,73,0.00,,,0.00,Wunderground v.1.15,2013-04-21 22:15:00,
2013-04-21 17:20:00,73.4,63.8,29.97,ESE,121,7.0,7.0,72,0.00,,,0.00,Wunderground v.1.15,2013-04-21 22:20:00,
2013-04-21 17:25:00,72.9,64.1,29.97,ESE,106,8.0,8.0,74,0.00,,,0.00,Wunderground v.1.15,2013-04-21 22:25:00,
2013-04-21 17:30:00,72.8,64.0,29.97,East,91,8.0,8.0,74,0.00,,,0.00,Wunderground v.1.15,2013-04-21 22:30:00,
2013-04-21 17:35:00,72.4,64.4,29.97,ENE,68,8.0,8.0,76,0.00,,,0.00,Wunderground v.1.15,2013-04-21 22:35:00,
2013-04-21 17:45:00,72.6,64.6,29.97,ESE,115,7.0,10.0,76,0.00,,,0.00,Wunderground v.1.15,2013-04-21 22:45:00,
2013-04-21 17:50:00,72.6,64.6,29.97,East,85,6.0,6.0,76,0.00,,,0.00,Wunderground v.1.15,2013-04-21 22:50:00,
2013-04-21 17:55:00,72.2,64.2,29.97,East,81,8.0,9.0,76,0.00,,,0.00,Wunderground v.1.15,2013-04-21 22:55:00,
2013-04-21 18:05:00,72.4,64.4,29.97,ESE,113,7.0,10.0,76,0.00,,,0.00,Wunderground v.1.15,2013-04-21 23:05:00,
2013-04-21 18:10:00,72.3,64.7,29.98,ESE,120,7.0,8.0,77,0.00,,,0.00,Wunderground v.1.15,2013-04-21 23:10:00,
2013-04-21 19:20:00,70.2,64.1,29.98,East,82,7.0,8.0,81,0.00,,,0.00,Wunderground v.1.15,2013-04-22 00:20:00,
2013-04-21 19:30:00,69.9,64.2,29.98,ENE,78,8.0,8.0,82,0.00,,,0.00,Wunderground v.1.15,2013-04-22 00:30:00,
2013-04-21 19:35:00,69.8,64.1,29.99,ENE,61,7.0,9.0,82,0.00,,,0.00,Wunderground v.1.15,2013-04-22 00:35:00,
2013-04-21 19:40:00,69.6,63.9,29.99,ENE,74,8.0,8.0,82,0.00,,,0.00,Wunderground v.1.15,2013-04-22 00:40:00,
2013-04-21 19:45:00,69.5,63.8,29.99,ESE,108,8.0,12.0,82,0.00,,,0.00,Wunderground v.1.15,2013-04-22 00:45:00,
2013-04-21 19:50:00,69.4,63.7,29.99,ESE,120,8.0,11.0,82,0.00,,,0.00,Wunderground v.1.15,2013-04-22 00:50:00,
2013-04-21 20:00:00,69.3,63.6,29.99,ESE,112,8.0,8.0,82,0.00,,,0.00,Wunderground v.1.15,2013-04-22 01:00:00,
2013-04-21 20:10:00,69.2,63.5,30.00,ENE,70,6.0,6.0,82,0.00,,,0.00,Wunderground v.1.15,2013-04-22 01:10:00,
2013-04-21 20:15:00,69.2,63.8,29.99,East,93,6.0,11.0,83,0.00,,,0.00,Wunderground v.1.15,2013-04-22 01:15:00,
2013-04-21 20:20:00,69.1,63.7,30.00,SE,131,7.0,9.0,83,0.00,,,0.00,Wunderground v.1.15,2013-04-22 01:20:00,
2013-04-21 20:25:00,69.1,64.1,30.00,East,101,8.0,9.0,84,0.00,,,0.00,Wunderground v.1.15,2013-04-22 01:25:00,
2013-04-21 20:35:00,69.0,64.3,30.00,ENE,76,7.0,10.0,85,0.00,,,0.00,Wunderground v.1.15,2013-04-22 01:35:00,
2013-04-21 20:40:00,69.0,64.3,30.00,SSE,150,7.0,7.0,85,0.00,,,0.00,Wunderground v.1.15,2013-04-22 01:40:00,
2013-04-21 20:45:00,68.9,64.2,30.01,East,101,8.0,8.0,85,0.00,,,0.00,Wunderground v.1.15,2013-04-22 01:45:00,
2013-04-21 20:50:00,68.8,64.1,30.01,East,84,8.0,8.0,85,0.00,,,0.00,Wunderground v.1.15,2013-04-22 01:50:00,
2013-04-21 20:55:00,68.8,64.1,30.01,East,84,8.0,8.0,85,0.00,,,0.00,Wunderground v.1.15,2013-04-22 01:55:00,
2013-04-21 21:00:00,68.8,64.1,30.01,SE,127,7.0,7.0,85,0.00,,,0.00,Wunderground v.1.15,2013-04-22 02:00:00,
2013-04-21 21:10:00,68.8,64.1,30.01,East,91,7.0,7.0,85,0.00,,,0.00,Wunderground v.1.15,2013-04-22 02:10:00,
2013-04-21 21:15:00,68.8,64.1,30.01,East,82,7.0,13.0,85,0.00,,,0.00,Wunderground v.1.15,2013-04-22 02:15:00,
2013-04-21 21:20:00,68.7,64.0,30.01,ENE,76,8.0,8.0,85,0.00,,,0.00,Wunderground v.1.15,2013-04-22 02:20:00,
2013-04-21 21:25:00,68.8,64.4,30.01,ENE,67,8.0,8.0,86,0.00,,,0.00,Wunderground v.1.15,2013-04-22 02:25:00,
2013-04-21 21:30:00,68.7,64.3,30.02,SE,138,7.0,7.0,86,0.00,,,0.00,Wunderground v.1.15,2013-04-22 02:30:00,
2013-04-21 21:40:00,68.6,64.2,30.02,East,82,6.0,9.0,86,0.00,,,0.00,Wunderground v.1.15,2013-04-22 02:40:00,
2013-04-21 21:45:00,68.6,64.2,30.02,ESE,110,8.0,9.0,86,0.00,,,0.00,Wunderground v.1.15,2013-04-22 02:45:00,
2013-04-21 21:50:00,68.6,64.2,30.02,East,86,8.0,8.0,86,0.00,,,0.00,Wunderground v.1.15,2013-04-22 02:50:00,
2013-04-21 21:55:00,68.5,64.1,30.02,East,86,7.0,8.0,86,0.00,,,0.00,Wunderground v.1.15,2013-04-22 02:55:00,
2013-04-21 22:00:00,68.6,64.6,30.02,East,101,8.0,14.0,87,0.00,,,0.00,Wunderground v.1.15,2013-04-22 03:00:00,
2013-04-21 22:10:00,68.6,64.2,30.02,ENE,74,9.0,9.0,86,0.00,,,0.00,Wunderground v.1.15,2013-04-22 03:10:00,
2013-04-21 22:15:00,68.6,64.6,30.02,ESE,116,8.0,9.0,87,0.00,,,0.00,Wunderground v.1.15,2013-04-22 03:15:00,
2013-04-21 22:20:00,68.5,64.5,30.02,East,91,8.0,8.0,87,0.00,,,0.00,Wunderground v.1.15,2013-04-22 03:20:00,
2013-04-21 22:25:00,68.5,64.5,30.02,ESE,108,8.0,9.0,87,0.00,,,0.00,Wunderground v.1.15,2013-04-22 03:25:00,
2013-04-21 22:30:00,68.4,64.4,30.03,ESE,110,7.0,16.0,87,0.00,,,0.00,Wunderground v.1.15,2013-04-22 03:30:00,
2013-04-21 22:35:00,68.4,64.4,30.03,ESE,105,7.0,16.0,87,0.00,,,0.00,Wunderground v.1.15,2013-04-22 03:35:00,
2013-04-21 22:45:00,68.4,64.7,30.03,ESE,110,8.0,15.0,88,0.00,,,0.00,Wunderground v.1.15,2013-04-22 03:45:00,
2013-04-21 22:50:00,68.4,64.7,30.03,East,90,7.0,9.0,88,0.00,,,0.00,Wunderground v.1.15,2013-04-22 03:50:00,
2013-04-21 22:55:00,68.4,64.7,30.03,SE,126,8.0,9.0,88,0.00,,,0.00,Wunderground v.1.15,2013-04-22 03:55:00,
2013-04-21 23:00:00,68.3,64.3,30.03,ESE,112,9.0,9.0,87,0.00,,,0.00,Wunderground v.1.15,2013-04-22 04:00:00,
2013-04-21 23:05:00,68.3,64.3,30.03,East,101,9.0,17.0,87,0.00,,,0.00,Wunderground v.1.15,2013-04-22 04:05:00,
2013-04-21 23:15:00,68.3,64.3,30.03,East,88,8.0,13.0,87,0.00,,,0.00,Wunderground v.1.15,2013-04-22 04:15:00,
2013-04-21 23:20:00,68.3,64.3,30.03,ESE,113,8.0,8.0,87,0.00,,,0.00,Wunderground v.1.15,2013-04-22 04:20:00,
2013-04-21 23:25:00,68.3,64.3,30.03,ESE,122,8.0,9.0,87,0.00,,,0.00,Wunderground v.1.15,2013-04-22 04:25:00,
2013-04-21 23:30:00,68.4,64.4,30.03,SSE,165,8.0,8.0,87,0.00,,,0.00,Wunderground v.1.15,2013-04-22 04:30:00,
2013-04-21 23:35:00,68.3,64.3,30.03,East,91,8.0,8.0,87,0.00,,,0.00,Wunderground v.1.15,2013-04-22 04:35:00,
2013-04-21 23:40:00,68.4,64.4,30.03,ESE,103,8.0,11.0,87,0.00,,,0.00,Wunderground v.1.15,2013-04-22 04:40:00,
2013-04-21 23:45:00,68.4,64.4,30.03,ESE,108,8.0,11.0,87,0.00,,,0.00,Wunderground v.1.15,2013-04-22 04:45:00,
2013-04-21 23:50:00,68.4,64.4,30.03,East,92,8.0,8.0,87,0.00,,,0.00,Wunderground v.1.15,2013-04-22 04:50:00,
2013-04-21 23:55:00,68.4,64.4,30.03,East,101,8.0,8.0,87,0.00,,,0.00,Wunderground v.1.15,2013-04-22 04:55:00,